Location: ???????
(30.7043°N, 60.6034°E)
Time: 02:49:42
(UTC+00:00)

Daily predictions for brighter satellites

Satellite Brightness Start Highest point End
(mag) Time Altitude Azimuth Time Altitude Azimuth Time Altitude Azimuth
Cosmos 1833 Rocket 3.3 00:10:17 41° NNW 00:10:17 41° NNW 00:14:11 10° N
H-2A R/B 2.6 00:07:27 10° SSE 00:10:48 50° SSE 00:10:48 50° SSE
CZ-2C R/B 3.5 00:15:25 12° SSE 00:15:25 12° SSE 00:15:47 10° SSE
CENTAUR R/B 4.3 00:15:47 16° NNW 00:15:47 16° NNW 00:18:09 10° N
Cosmos 2279 Rocket 3.9 00:07:59 10° NNW 00:14:03 61° W 00:20:07 10° S
ALOS 2.6 00:17:33 10° NNE 00:22:11 65° E 00:26:48 10° S
GOES 2 Rocket 3.9 00:22:27 48° SW 00:23:53 65° S 00:30:43 10° E
SL-14 R/B 3.3 00:22:33 24° S 00:24:50 79° E 00:28:51 10° N
CZ-4B R/B 3.3 00:22:26 10° SE 00:25:31 31° ENE 00:28:35 10° NNE
Meteor 1-24 Rocket 3.9 00:21:36 10° S 00:27:04 70° E 00:32:47 10° NNE
Cosmos 1626 4.5 00:30:35 14° N 00:30:35 14° N 00:31:06 10° N
Cosmos 2084 3.3 00:28:56 72° WSW 00:29:14 77° WNW 00:33:35 10° NNE
Cosmos 2082 Rocket 2.0 00:28:11 28° SW 00:31:13 67° WNW 00:36:48 10° NNE
CZ-3 Stage 3 4.1 00:29:25 26° SSW 00:31:39 48° SE 00:47:54 10° ENE
OE (NEXTSAT) 4.5 00:33:06 67° NNE 00:33:06 67° NNE 00:36:11 10° NE
Cosmos 1656 3.6 00:32:08 24° NNW 00:35:33 65° WSW 00:41:08 10° S
deb Chang Zheng 4 3.5 00:32:15 10° NNE 00:36:31 84° ESE 00:40:47 10° SSW
Meteor 1-16 Rocket 4.4 00:40:30 37° WNW 00:41:07 39° W 00:46:04 10° SSW
Cosmos 1892 Rocket 3.7 00:38:36 10° S 00:42:54 75° E 00:47:15 10° N
Cosmos 2251 Rocket 3.5 00:39:55 10° SSW 00:45:11 58° WNW 00:50:28 10° N
SL-19 R/B 3.7 00:42:29 10° NNE 00:45:20 73° ESE 00:48:23 10° S
Gblst 52 Del rocket 4.2 00:43:46 17° SW 00:48:06 87° SE 00:54:06 10° NE
Cosmos 1484 Rocket 2.8 00:47:01 10° N 00:50:43 49° WNW 00:54:21 10° SSW
CZ-2C R/B 4.3 00:49:04 10° NNW 00:50:07 14° NNW 00:50:07 14° NNW
Meteor 2-5 Rocket 4.0 00:52:42 10° SSW 00:58:02 43° WNW 01:03:30 10° N
USA 290 4.5 01:00:58 13° NNW 01:00:58 13° NNW 01:01:28 10° NNW
ATLAS 3B R/B 3.3 00:58:17 23° W 01:01:02 30° NW 01:06:46 10° N
Cosmos 1697 Rocket 2.6 00:55:38 10° NNW 01:01:17 77° WSW 01:06:55 10° SSE
Meteor PRIRODA 4.2 00:58:05 10° NNE 01:01:43 60° E 01:05:20 10° S
DELTA 2 R/B (1) 3.7 01:02:51 22° WNW 01:06:30 66° SSW 01:12:03 10° SE
BREEZE-M DEB (TANK) 2.2 01:05:50 19° NNW 01:07:16 40° NNE 01:09:20 10° ESE
ADEOS Rocket 3.6 01:04:33 10° SSW 01:09:08 27° W 01:13:42 10° NW
FENGYUN 3A 4.1 01:05:41 10° N 01:10:41 39° WNW 01:15:40 10° SW
Cosmos 1092 Rocket 4.2 01:06:56 10° SSW 01:12:47 46° W 01:18:44 10° N
Meteor 1-31 Rocket 3.4 01:11:49 10° N 01:15:23 34° WNW 01:18:55 10° SW
Cosmos 967 Rocket 4.5 01:11:31 10° NNW 01:17:49 88° ENE 01:24:04 10° SSE
DELTA 2 R/B(2) 4.2 01:16:51 19° WSW 01:18:21 81° NNW 01:23:20 10° ENE
CZ-4B R/B 2.9 01:14:39 10° N 01:18:46 64° WNW 01:23:03 10° SSW
Geosat 4.1 01:16:58 10° S 01:21:54 58° WSW 01:26:51 10° NNW
Cosmos 1980 Rocket 2.3 01:18:24 10° NNW 01:24:01 84° ENE 01:29:37 10° SSE
SAR-Lupe-4 3.7 01:20:58 10° S 01:24:26 51° W 01:27:55 10° NNW
ERS-2 3.3 01:22:56 10° SSW 01:25:48 22° W 01:28:41 10° NW
CZ-3 R/B 2.8 01:06:30 14° W 01:27:18 80° S 01:33:29 10° E
Cosmos 407 Rocket 3.4 01:22:51 10° SSW 01:27:57 75° WNW 01:33:05 10° NNE
ATLAS CENTAUR R/B 1.2 01:25:33 10° SSW 01:29:37 83° WNW 01:33:28 10° NNE
Cosmos 1726 Rocket 4.0 01:25:48 10° NNW 01:29:59 41° W 01:34:10 10° SSW
Cosmos 1140 Rocket 3.5 01:25:56 10° SSW 01:31:04 90° SW 01:36:13 10° NNE
PSLV R/B 4.2 01:27:43 10° NNE 01:31:50 72° ESE 01:35:53 10° S
Envisat 4.2 01:27:43 10° NNE 01:32:37 47° E 01:37:28 10° S
Cosmos 2228 4.1 01:31:59 10° NW 01:35:32 24° W 01:39:05 10° SW
Aureole 3 4.1 01:31:00 10° NNW 01:35:38 63° W 01:41:33 10° S
Cosmos 1655 Rocket 4.4 01:29:49 10° S 01:36:02 73° E 01:42:20 10° N
Cosmos 2292 Rocket 3.1 01:36:01 10° S 01:38:56 66° E 01:42:12 10° N
